Weather History for PADQ - March, 2013

Change the Weather History Date:

Friday, March 29, 2013

  Actual Average Record
Temperature  
Mean Temperature 38 °F 34 °F  
Max Temperature 43 °F 39 °F 52 °F (1996)
Min Temperature 32 °F 29 °F 7 °F (1952)
Degree Days  
Heating Degree Days 27 31  
Month to date heating degree days 960 936  
Since 1 July heating degree days 6881 6809  
Cooling Degree Days 0    
Month to date cooling degree days 0  
Year to date cooling degree days 0  
Moisture  
Dew Point 34 °F    
Average Humidity 0    
Maximum Humidity 0    
Minimum Humidity 0    
Precipitation  
Precipitation 0.03 in 0.17 in 0.89 in (1957)
Month to date precipitation 4.45 5.18  
Year to date precipitation 20.63 19.61  
Snow  
Snow 0.00 in 0.40 in 2.30 in (1980)
Month to date snowfall 11.7 10.6  
Since 1 July snowfall 60.1 60.0  
Snow Depth T in    
Sea Level Pressure  
Sea Level Pressure 29.77 in    
Wind  
Wind Speed 4 mph (SW)    
Max Wind Speed 8 mph    
Max Gust Speed 10 mph    
Visibility 10 miles    
Events Rain    
T = Trace of Precipitation, MM = Missing Value Source: NWS Daily Summary

Daily Weather History Graph

Daily Weather History Graph

Search for Another Location

Airport or City:

Trip Planner

Search our weather history database for the weather conditions in past years. The results will help you decide how hot, cold, wet, or windy it might be!

Date:

Astronomy

Mar. 29, 2013 Rise Set
Actual Time 7:45 AM AKDT 8:45 PM AKDT
Civil Twilight 7:05 AM AKDT 9:24 PM AKDT
Nautical Twilight 6:17 AM AKDT 10:13 PM AKDT
Astronomical Twilight 5:23 AM AKDT 11:08 PM AKDT
Moon No Moon Rise 8:22 AM AKDT
Length of Visible Light 14h 19m
Length of Day
12h 59m
Waning Gibbous, 92% of the Moon is Illuminated
Mar 29
Waning Gibbous
Apr 2
Last Quarter
Apr 10
New
Apr 18
First Quarter
Apr 25
Full

Hourly Weather History & Observations

Time (AKDT) Temp. Windchill Dew Point Humidity Pressure Visibility Wind Dir Wind Speed Gust Speed Precip Events Conditions
12:53 AM 35.1 °F 32.2 °F 35.1 °F 100% 29.67 in 10.0 mi NNW 3.5 mph - N/A   Overcast
1:08 AM 35.6 °F - 35.6 °F 100% 29.67 in 10.0 mi Calm Calm - N/A   Overcast
1:18 AM 35.6 °F - 35.6 °F 100% 29.67 in 10.0 mi Calm Calm - N/A   Overcast
1:46 AM 35.6 °F - 35.6 °F 100% 29.68 in 10.0 mi Calm Calm - N/A   Mostly Cloudy
1:53 AM 35.1 °F - 35.1 °F 100% 29.68 in 10.0 mi Calm Calm - N/A   Scattered Clouds
2:53 AM 33.1 °F 30.0 °F 32.0 °F 96% 29.69 in 10.0 mi NW 3.5 mph - N/A   Clear
3:53 AM 33.1 °F 26.9 °F 33.1 °F 100% 29.70 in 10.0 mi West 6.9 mph - N/A   Mostly Cloudy
4:53 AM 35.1 °F 30.1 °F 34.0 °F 96% 29.71 in 10.0 mi SSW 5.8 mph - N/A   Mostly Cloudy
5:32 AM 35.6 °F 30.7 °F 33.8 °F 93% 29.71 in 10.0 mi West 5.8 mph - N/A   Overcast
5:53 AM 35.1 °F 31.0 °F 34.0 °F 96% 29.72 in 10.0 mi WNW 4.6 mph - N/A   Overcast
6:16 AM 37.4 °F 32.8 °F 35.6 °F 93% 29.71 in 10.0 mi WNW 5.8 mph - N/A   Overcast
6:53 AM 36.0 °F 32.1 °F 35.1 °F 97% 29.72 in 10.0 mi WNW 4.6 mph - 0.00 in Rain Light Rain
7:53 AM 36.0 °F 32.1 °F 35.1 °F 97% 29.73 in 10.0 mi WSW 4.6 mph - 0.00 in   Overcast
8:53 AM 36.0 °F 33.3 °F 35.1 °F 97% 29.74 in 10.0 mi NW 3.5 mph - N/A   Overcast
9:53 AM 37.0 °F - 36.0 °F 96% 29.75 in 10.0 mi Calm Calm - 0.02 in Rain Light Rain
10:53 AM 39.9 °F - 37.0 °F 89% 29.76 in 10.0 mi Calm Calm - 0.01 in   Mostly Cloudy
11:53 AM 41.0 °F 38.0 °F 36.0 °F 82% 29.78 in 10.0 mi ENE 4.6 mph - N/A   Mostly Cloudy
12:53 PM 41.0 °F 36.4 °F 37.9 °F 89% 29.79 in 10.0 mi East 6.9 mph - N/A   Mostly Cloudy
1:13 PM 41.0 °F 35.8 °F 37.4 °F 87% 29.78 in 10.0 mi East 8.1 mph - N/A   Mostly Cloudy
1:53 PM 41.0 °F 36.4 °F 37.9 °F 89% 29.80 in 10.0 mi East 6.9 mph - N/A   Mostly Cloudy
2:53 PM 41.0 °F 36.4 °F 37.0 °F 86% 29.80 in 10.0 mi ENE 6.9 mph - N/A   Scattered Clouds
3:53 PM 42.1 °F 37.7 °F 37.0 °F 82% 29.81 in 10.0 mi East 6.9 mph - 0.00 in   Mostly Cloudy
4:53 PM 39.9 °F 35.8 °F 36.0 °F 86% 29.82 in 10.0 mi East 5.8 mph - N/A   Mostly Cloudy
5:53 PM 41.0 °F 39.0 °F 34.0 °F 76% 29.83 in 10.0 mi East 3.5 mph - N/A   Mostly Cloudy
6:53 PM 42.1 °F - 32.0 °F 67% 29.84 in 10.0 mi Calm Calm - N/A   Scattered Clouds
7:53 PM 39.9 °F 35.8 °F 30.0 °F 68% 29.86 in 10.0 mi SSW 5.8 mph - N/A   Scattered Clouds
8:53 PM 37.9 °F 35.5 °F 30.9 °F 76% 29.88 in 10.0 mi SE 3.5 mph - N/A   Partly Cloudy
9:53 PM 36.0 °F 31.1 °F 30.0 °F 79% 29.91 in 10.0 mi SW 5.8 mph - N/A   Scattered Clouds
10:53 PM 34.0 °F - 30.0 °F 85% 29.93 in 10.0 mi Calm Calm - N/A   Scattered Clouds
11:53 PM 37.0 °F 31.6 °F 32.0 °F 82% 29.95 in 10.0 mi SSW 6.9 mph - N/A   Mostly Cloudy